星链-37366(STARLINK-37366)

导读

STARLINK-37366(NORAD编号68807)是美国SpaceX公司星链(Starlink)低轨卫星互联网星座中的一员,属于星链大规模组网计划的组成部分。星链项目计划在近地轨道部署超过1.2万颗卫星,旨在为全球偏远地区、传统网络覆盖不足区域提供高带宽互联网接入服务。作为低轨卫星,该卫星运行在近地轨道,可作为空中移动基站,为地面用户提供灵活便捷的网络连接,助力星链完成全球覆盖的组网目标,也支撑Starlink后续拓展相关服务能力。

基本信息
目录编号:
68807
目录名称:
STARLINK-37366
国际标识:
2026-089F
轨道中心:
EARTH
卫星名称:
星链-37366
卫星全名:
星链-37366(STARLINK-37366)
卫星状态:
在轨 (已飞行134 天)
发射日期:
2026-04-23 UTC
国别 :
美国 (US)
星等 :
--
轨道信息
数据来源 国际轨道数据 AOE轨道数据
星历时间 2026-09-03T20:28:23+0800
19小时前
查看轨道信息
2026-08-30T23:00:00+0800
4天前
查看轨道信息
半长轴 6843.66km 6843.707km
偏心率 0.0002289 0.0002166
轨道倾角 97.286° 97.285°
近地点辐角 91.444° 88.610°
升交点赤经 92.472° 88.635°
平近点角 268.707° 25.257°
近地点 463.956km 464.087km
远地点 467.09km 467.053km
周期 93.906分钟 93.907分钟
每日圈数 15.334518 15.334361
详细信息
固有亮度:
5
最大亮度:
2.5
卫星平台:
Starlink V1.0
覆盖范围:
全球
运营商:
太空探索技术公司
运营商所在国:
美国
制造商(研发单位):
太空探索技术公司
制造商所在国:
美国
使用方式:
暂无
卫星简介
Starlink 计划是 SpaceX 推出的全球卫星互联网项目,通过发射低轨道卫星,为全球尤其是偏远地区提供高速、低延迟的互联网服务。自 2019 年起,Starlink 已部署数千颗卫星,旨在缩小全球数字鸿沟,推动互联网普及。该项目还为军事、航空等行业提供通信支持,带来广泛经济效益。
2D轨道图
3D轨道图
轨道高度分析图
轨道倾角分析图
轨道综合分析图
查看轨道综合分析图
交会数据列表
事件ID 空间交会对象 最接近时刻(TCA) 交会距离 交会风险概率(CRP) 交会风险指数(CRI) 操作
CDM_260906-053704-736706-880721
2026-09-06T
05:37:14+0000
2.808 km
极远距离
1.435447E-6 低风险 0.38
CDM_260903-132705-256906-880721
2026-09-03T
13:27:50+0000
2.628 km
极远距离
1.217723E-6 低风险 0.37
CDM_260905-155804-786106-880721
2026-09-05T
15:58:31+0000
2.921 km
极远距离
9.637505E-7 极低风险 0.35